Location: ???????
(41.4432°N, 22.6906°E)
Time: 22:15:23
(UTC+00:00)

Daily predictions for brighter satellites

Satellite Brightness Start Highest point End
(mag) Time Altitude Azimuth Time Altitude Azimuth Time Altitude Azimuth
NOAA 12 4.1 15:24:09 10° SSE 15:29:27 73° ENE 15:34:46 10° N
Cosmos 1939 Rocket 3.2 15:25:42 10° SSE 15:29:38 46° ENE 15:33:34 10° N
Meteor PRIRODA 3.5 15:26:41 10° SSE 15:30:19 81° ENE 15:33:57 10° N
Cosmos 44 3.8 15:29:13 10° NW 15:33:52 60° WSW 15:38:13 10° SSE
Cosmos 2034 Rocket 4.1 15:29:31 10° S 15:35:41 89° WNW 15:41:52 10° N
Cosmos 540 Rocket 3.6 15:34:19 10° S 15:39:17 57° ESE 15:44:17 10° NNE
AQUARIUS 4.4 15:36:07 10° SE 15:40:25 48° ENE 15:44:44 10° N
COSMOS 2406 3.3 15:36:51 10° SSW 15:42:33 71° ESE 15:48:16 10° NNE
ARGOS 4.3 15:38:37 10° ESE 15:42:38 22° ENE 15:46:38 10° NNE
Cosmos 1602 4.0 15:39:32 10° N 15:43:15 44° E 15:46:58 10° SSE
Cosmos 1833 Rocket 2.8 15:38:37 10° SSW 15:44:14 87° WNW 15:49:54 10° NNE
ATLAS CENTAUR R/B 3.5 15:38:35 10° SW 15:50:21 71° NW 15:54:58 10° NE
COSMO-SKYMED 1 3.7 15:47:05 10° NE 15:50:36 24° E 15:54:08 10° SSE
Cosmos 1782 3.0 15:48:20 10° S 15:52:12 50° E 15:56:04 10° NNE
Cosmos 468 Rocket 4.4 15:48:28 10° SSW 15:53:34 63° WNW 15:58:44 10° NNE
Cosmos 1634 Rocket 4.1 15:50:13 10° S 15:56:26 63° E 16:02:41 10° NNE
CZ-2C R/B 3.7 15:56:38 10° S 15:58:19 12° SSE 15:59:59 10° SE
COSMOS 2455 2.9 15:52:40 10° SSW 15:58:38 71° ESE 16:04:39 10° NNE
Cosmos 1633 Rocket 4.0 15:55:35 10° NNE 15:59:11 25° ENE 16:02:47 10° SE
Cosmos 1898 Rocket 3.5 15:54:47 10° NNW 16:00:03 88° WSW 16:05:15 10° SSE
PAYLOAD B 4.3 15:55:52 10° SSE 16:01:19 55° ENE 16:06:47 10° N
CZ-2D R/B 3.4 16:00:01 10° SSE 16:03:43 50° ENE 16:07:26 10° N
CZ-2C R/B 4.1 15:59:08 10° S 16:03:52 45° W 16:08:28 10° NNW
CZ-4B R/B 3.6 15:59:13 10° SE 16:04:14 39° ENE 16:09:11 10° N
Cosmos 2026 Rocket 3.9 15:58:53 10° N 16:05:01 72° E 16:11:03 10° SSE
Cosmos 1340 Rocket 4.3 16:01:48 10° NNW 16:05:39 41° W 16:09:29 10° SSW
CZ-2C R/B 3.0 16:01:04 10° NNE 16:05:55 39° E 16:10:42 10° SSE
Cosmos 2195 Rocket 4.5 16:02:19 10° N 16:08:31 89° E 16:14:44 10° S
Cosmos 1151 Rocket 3.4 16:05:53 10° SSE 16:09:56 43° E 16:14:04 10° NNE
Meteor 2-14 Rocket 4.4 16:04:41 10° N 16:10:48 74° E 16:16:51 10° SSE
Cosmos 2360 4.2 16:05:24 10° NNW 16:11:10 89° WSW 16:16:53 10° SSE
Okean O Rocket 2.3 16:08:45 10° SE 16:12:41 32° ENE 16:16:40 10° N
Cosmos 1500 3.0 16:09:23 10° N 16:13:07 66° E 16:16:48 10° SSE
Lacrosse 5 rocket 3.0 16:12:08 10° NNW 16:14:38 16° NNE 16:14:59 16° NNE
NOSS 2-2 (C) 4.5 16:09:49 10° NNW 16:15:08 59° NE 16:22:33 10° SE
DEBRIS 4.3 16:15:40 10° SSE 16:17:08 15° ESE 16:17:08 15° ESE
USA 267 4.0 16:13:43 11° NE 16:19:32 44° NNW 16:25:38 10° W
Meteor 1-26 Rocket 4.4 16:14:30 10° S 16:20:27 85° W 16:26:32 10° N
H-2A R/B 1.9 16:16:21 10° SSE 16:21:32 74° ENE 16:26:36 10° N
GPS 2-04 Rocket1 4.1 16:20:52 10° WSW 16:24:37 34° S 16:27:26 15° SE
Cosmos 1666 Rocket 3.6 16:20:43 10° N 16:25:06 57° E 16:29:25 10° SSE
CZ-4C R/B 4.5 16:26:53 20° SE 16:26:53 20° SE 16:28:28 10° SSE
Cosmos 1328 Rocket 3.8 16:22:59 10° SSE 16:27:14 47° E 16:30:24 17° NNE
Cosmos 1470 Rocket 4.3 16:24:19 10° NNE 16:28:15 29° ENE 16:32:09 10° SE
USA 276 4.1 16:29:32 10° WNW 16:32:17 28° SW 16:35:01 10° SSE
PSLV R/B 4.3 16:28:41 10° S 16:32:17 58° WSW 16:35:58 10° NNW
Meteor 2-8 Rocket 4.5 16:26:28 10° SSE 16:32:26 56° E 16:38:27 10° NNE
Cosmos 841 Rocket 3.9 16:28:03 10° SSW 16:33:09 61° WNW 16:38:16 10° NNE
Meteor 2-21 Rocket 4.3 16:27:43 10° N 16:33:51 83° E 16:39:55 10° S
Landsat 5 3.6 16:32:08 28° NE 16:33:53 47° E 16:37:42 10° S
MOS 1-B 4.4 16:28:53 10° SSE 16:34:39 85° WSW 16:40:28 10° NNW
SKYMED 2 3.4 16:34:47 12° NNE 16:38:51 81° ESE 16:43:11 10° S
Cosmos 1937 Rocket 4.3 16:34:48 10° NNW 16:40:00 54° WSW 16:45:08 10° S
Cosmos 1666 2.4 16:38:52 10° N 16:42:35 82° E 16:46:18 10° S
Cosmos 1125 Rocket 4.5 16:38:25 10° N 16:41:53 27° NE 16:41:53 27° NE
SL-24 R/B - RUBIN 2 3.4 16:41:28 10° NW 16:45:57 86° SW 16:49:59 12° SSE
Cosmos 2322 Rocket 3.6 16:43:06 10° N 16:45:58 21° NNE 16:45:58 21° NNE
Cosmos 1697 Rocket 4.1 16:44:13 10° NW 16:49:23 39° WSW 16:54:32 10° S
Cosmos 372 Rocket 4.3 16:46:03 10° NNW 16:51:16 68° WSW 16:56:27 10° S
USA 234 3.5 16:45:14 10° SE 16:51:44 70° SW 16:58:17 10° NW
Cosmos 1980 Rocket 2.4 16:48:17 10° NNW 16:53:56 72° WSW 16:59:30 10° SSE
Meteor 1-14 Rocket 4.4 16:48:56 10° NNW 16:54:47 77° W 17:00:42 10° S
SL-08 RB Rocket 3.6 16:50:37 10° SSE 16:55:12 63° ENE 16:59:46 10° N
Cosmos 2369 4.4 16:50:12 10° NNW 16:55:47 54° WSW 17:01:19 10° S
Cosmos 1812 4.0 16:55:38 10° SSW 16:59:15 40° WNW 17:02:43 11° N
Meteor 1-5 Rocket 4.4 16:53:46 10° NNW 16:59:46 78° W 17:05:38 10° S
CZ-4C R/B 2.9 16:53:42 10° NNW 17:01:08 78° NE 17:09:43 10° SE
deb Chang Zheng 4 4.0 16:58:14 10° S 17:02:29 61° WSW 17:06:46 10° NNW
SL-16 R/B 2.9 17:00:12 10° N 17:04:16 35° NNE 17:04:16 35° NNE
Cosmos 2082 Rocket 3.3 17:00:44 10° SW 17:06:06 42° WNW 17:10:43 14° N
ISS -2.5 17:02:50 10° NW 17:04:59 36° NW 17:04:59 36° NW
Cosmos 1515 Rocket 3.6 17:04:56 10° S 17:08:52 66° SSE 17:08:52 66° SSE
Cosmos 44 Rocket 3.8 17:10:45 10° NNW 17:14:24 45° N 17:14:24 45° N
Cosmos 2278 4.1 17:14:16 10° NNW 17:19:54 62° WSW 17:25:28 10° S
ARGOS 3.9 17:17:12 10° S 17:22:29 53° W 17:27:46 10° NNW
Meteor 1-27 Rocket 3.8 17:19:46 10° S 17:24:11 56° SSE 17:24:11 56° SSE
COSMO-SKYMED 1 4.3 17:23:24 12° NNW 17:26:46 30° WNW 17:30:33 10° SW
DMSP B5D2-2 3.9 17:29:23 87° SSW 17:29:23 87° SSW 17:34:32 10° SSW
Cosmos 2298 Rocket 4.2 17:24:25 10° NNW 17:28:50 61° N 17:28:50 61° N
IRAS Rocket 4.3 17:31:07 62° SSE 17:31:07 62° SSE 17:35:46 10° S
Cosmos 2266 Rocket 4.1 17:25:44 10° N 17:32:09 80° W 17:38:32 10° S
Cosmos 921 Rocket 3.9 17:29:12 10° SW 17:32:43 46° W 17:32:43 46° W
ATLAS 5 CENTAUR R/B 4.0 17:31:08 10° NW 17:33:09 20° NNW 17:33:09 20° NNW
GEOS 3 Rocket 4.2 17:37:58 48° NNW 17:37:58 48° NNW 17:41:43 10° NNW
CZ-2C R/B 3.5 17:33:42 10° SW 17:35:26 19° SSW 17:35:26 19° SSW
Cosmos 1818 3.8 17:34:11 10° NW 17:38:50 65° NW 17:38:50 65° NW
CZ-2C R/B 4.5 17:41:46 10° N 17:46:00 26° WNW 17:50:12 10° WSW
Okean O Rocket 3.9 17:45:29 10° SSW 17:49:03 23° W 17:52:39 10° NW
Lacrosse 5 rocket 4.1 17:50:16 10° NW 17:50:36 12° NW 17:50:36 12° NW
Cosmos 2322 Rocket 4.4 18:26:27 10° NNW 18:27:49 18° NW 18:27:49 18° NW
